Time,TemperatureF,DewpointF,PressureIn,WindDirection,WindDirectionDegrees,WindSpeedMPH,WindSpeedGustMPH,Humidity,HourlyPrecipIn,Conditions,Clouds,dailyrainin,SolarRadiationWatts/m^2,SoftwareType,DateUTC
2013-10-08 00:01:00,52.3,47.6,29.65,SSW,194,3.0,5.0,84,0.00,,,0.00,0,Wunderground v.1.15,2013-10-08 07:01:00,
2013-10-08 00:06:00,52.3,47.9,29.65,SSW,206,2.0,5.0,85,0.00,,,0.00,0,Wunderground v.1.15,2013-10-08 07:06:00,
2013-10-08 00:11:00,52.3,47.9,29.65,SE,146,5.0,5.0,85,0.00,,,0.00,0,Wunderground v.1.15,2013-10-08 07:11:00,
2013-10-08 00:16:00,52.3,47.9,29.65,South,175,4.0,5.0,85,0.00,,,0.00,0,Wunderground v.1.15,2013-10-08 07:16:00,
2013-10-08 00:21:00,52.2,47.8,29.65,SSE,157,6.0,6.0,85,0.00,,,0.00,0,Wunderground v.1.15,2013-10-08 07:21:00,
2013-10-08 00:26:00,52.2,47.8,29.65,SE,140,4.0,10.0,85,0.00,,,0.00,0,Wunderground v.1.15,2013-10-08 07:26:00,
2013-10-08 00:31:00,52.2,47.8,29.65,WSW,242,5.0,8.0,85,0.00,,,0.00,0,Wunderground v.1.15,2013-10-08 07:31:00,
2013-10-08 00:36:00,52.2,47.8,29.65,SSW,205,7.0,8.0,85,0.00,,,0.00,0,Wunderground v.1.15,2013-10-08 07:36:00,
2013-10-08 00:41:00,52.1,47.7,29.65,SSE,160,2.0,4.0,85,0.00,,,0.00,0,Wunderground v.1.15,2013-10-08 07:41:00,
2013-10-08 00:46:00,52.1,47.7,29.65,SSW,200,4.0,8.0,85,0.00,,,0.00,0,Wunderground v.1.15,2013-10-08 07:46:00,
2013-10-08 00:51:00,52.1,47.7,29.65,SSW,194,3.0,4.0,85,0.00,,,0.00,0,Wunderground v.1.15,2013-10-08 07:51:00,
2013-10-08 00:56:00,52.0,47.3,29.65,South,169,2.0,7.0,84,0.00,,,0.00,0,Wunderground v.1.15,2013-10-08 07:56:00,
2013-10-08 01:01:00,51.8,47.1,29.65,SSW,193,1.0,7.0,84,0.00,,,0.00,0,Wunderground v.1.15,2013-10-08 08:01:00,
2013-10-08 01:06:00,51.8,47.1,29.65,South,183,3.0,7.0,84,0.00,,,0.00,0,Wunderground v.1.15,2013-10-08 08:06:00,
2013-10-08 01:11:00,51.7,47.0,29.65,SSE,167,3.0,7.0,84,0.00,,,0.00,0,Wunderground v.1.15,2013-10-08 08:11:00,
2013-10-08 01:16:00,51.7,47.0,29.65,South,188,1.0,7.0,84,0.00,,,0.00,0,Wunderground v.1.15,2013-10-08 08:16:00,
2013-10-08 01:20:00,51.6,46.9,29.64,SW,215,3.0,6.0,84,0.00,,,0.00,0,Wunderground v.1.15,2013-10-08 08:20:00,
2013-10-08 01:25:00,51.5,46.8,29.64,SSE,147,6.0,8.0,84,0.00,,,0.00,0,Wunderground v.1.15,2013-10-08 08:25:00,
2013-10-08 01:30:00,51.3,46.9,29.64,SSW,195,2.0,3.0,85,0.00,,,0.00,0,Wunderground v.1.15,2013-10-08 08:30:00,
2013-10-08 01:35:00,51.2,46.8,29.64,SSW,192,2.0,7.0,85,0.00,,,0.00,0,Wunderground v.1.15,2013-10-08 08:35:00,
2013-10-08 01:40:00,51.0,46.6,29.64,SSE,163,1.0,6.0,85,0.00,,,0.00,0,Wunderground v.1.15,2013-10-08 08:40:00,
2013-10-08 01:45:00,51.0,46.6,29.64,South,183,2.0,7.0,85,0.00,,,0.00,0,Wunderground v.1.15,2013-10-08 08:45:00,
2013-10-08 01:50:00,50.9,46.6,29.65,SW,217,2.0,3.0,85,0.00,,,0.00,0,Wunderground v.1.15,2013-10-08 08:50:00,
2013-10-08 01:55:00,51.0,46.6,29.65,SSW,194,1.0,4.0,85,0.00,,,0.00,0,Wunderground v.1.15,2013-10-08 08:55:00,
2013-10-08 02:00:00,51.0,46.6,29.65,SW,219,2.0,6.0,85,0.00,,,0.00,0,Wunderground v.1.15,2013-10-08 09:00:00,
2013-10-08 02:05:00,51.1,46.7,29.65,SSW,203,2.0,7.0,85,0.00,,,0.00,0,Wunderground v.1.15,2013-10-08 09:05:00,
2013-10-08 02:10:00,51.1,46.7,29.65,SSW,207,1.0,3.0,85,0.00,,,0.00,0,Wunderground v.1.15,2013-10-08 09:10:00,
2013-10-08 02:15:00,51.2,46.8,29.65,SSW,192,5.0,5.0,85,0.00,,,0.00,0,Wunderground v.1.15,2013-10-08 09:15:00,
2013-10-08 02:20:00,51.2,46.8,29.65,South,170,3.0,7.0,85,0.00,,,0.00,0,Wunderground v.1.15,2013-10-08 09:20:00,
2013-10-08 02:25:00,51.2,46.8,29.65,South,173,2.0,7.0,85,0.00,,,0.00,0,Wunderground v.1.15,2013-10-08 09:25:00,
2013-10-08 02:30:00,51.2,46.8,29.65,South,183,0.0,3.0,85,0.00,,,0.00,0,Wunderground v.1.15,2013-10-08 09:30:00,
2013-10-08 02:35:00,51.2,46.8,29.64,SSW,196,2.0,5.0,85,0.00,,,0.00,0,Wunderground v.1.15,2013-10-08 09:35:00,
2013-10-08 02:40:00,51.2,46.8,29.64,SSE,153,2.0,3.0,85,0.00,,,0.00,0,Wunderground v.1.15,2013-10-08 09:40:00,
2013-10-08 02:45:00,51.2,46.8,29.64,SE,140,1.0,5.0,85,0.00,,,0.00,0,Wunderground v.1.15,2013-10-08 09:45:00,
2013-10-08 02:50:00,51.1,46.7,29.64,SSW,193,2.0,3.0,85,0.00,,,0.00,0,Wunderground v.1.15,2013-10-08 09:50:00,
2013-10-08 02:55:00,51.1,46.7,29.64,SSW,193,2.0,3.0,85,0.00,,,0.00,0,Wunderground v.1.15,2013-10-08 09:55:00,
2013-10-08 03:03:00,51.1,46.4,29.64,South,180,2.0,5.0,84,0.00,,,0.00,0,Wunderground v.1.15,2013-10-08 10:03:00,
2013-10-08 03:08:00,51.1,46.4,29.63,SSE,151,5.0,6.0,84,0.00,,,0.00,0,Wunderground v.1.15,2013-10-08 10:08:00,
2013-10-08 03:13:00,51.1,46.4,29.63,South,179,3.0,6.0,84,0.00,,,0.00,0,Wunderground v.1.15,2013-10-08 10:13:00,
2013-10-08 03:18:00,51.1,46.4,29.63,SSE,148,4.0,7.0,84,0.00,,,0.00,0,Wunderground v.1.15,2013-10-08 10:18:00,
2013-10-08 03:23:00,51.1,46.4,29.63,SSE,161,3.0,6.0,84,0.00,,,0.00,0,Wunderground v.1.15,2013-10-08 10:23:00,
2013-10-08 03:28:00,51.1,46.4,29.63,SSW,207,2.0,6.0,84,0.00,,,0.00,0,Wunderground v.1.15,2013-10-08 10:28:00,
2013-10-08 03:33:00,51.0,46.3,29.64,SW,223,3.0,7.0,84,0.00,,,0.00,0,Wunderground v.1.15,2013-10-08 10:33:00,
2013-10-08 03:38:00,51.1,46.1,29.63,WSW,258,1.0,7.0,83,0.00,,,0.00,0,Wunderground v.1.15,2013-10-08 10:38:00,
2013-10-08 03:43:00,51.1,46.1,29.63,South,187,2.0,3.0,83,0.00,,,0.00,0,Wunderground v.1.15,2013-10-08 10:43:00,
2013-10-08 03:48:00,51.0,46.3,29.63,SSW,207,1.0,4.0,84,0.00,,,0.00,0,Wunderground v.1.15,2013-10-08 10:48:00,
2013-10-08 03:53:00,51.0,46.0,29.63,SSW,194,2.0,6.0,83,0.00,,,0.00,0,Wunderground v.1.15,2013-10-08 10:53:00,
2013-10-08 03:58:00,51.0,46.0,29.64,SSW,206,1.0,6.0,83,0.00,,,0.00,0,Wunderground v.1.15,2013-10-08 10:58:00,
2013-10-08 04:03:00,51.0,46.0,29.63,SSW,202,1.0,7.0,83,0.00,,,0.00,0,Wunderground v.1.15,2013-10-08 11:03:00,
2013-10-08 04:08:00,51.0,46.3,29.63,SW,223,5.0,7.0,84,0.00,,,0.00,0,Wunderground v.1.15,2013-10-08 11:08:00,
2013-10-08 04:13:00,51.0,46.3,29.64,SSW,213,4.0,6.0,84,0.00,,,0.00,0,Wunderground v.1.15,2013-10-08 11:13:00,
2013-10-08 04:18:00,51.0,46.3,29.63,SSE,165,3.0,7.0,84,0.00,,,0.00,0,Wunderground v.1.15,2013-10-08 11:18:00,
2013-10-08 04:23:00,51.0,46.3,29.63,SSW,196,3.0,8.0,84,0.00,,,0.00,0,Wunderground v.1.15,2013-10-08 11:23:00,
2013-10-08 04:28:00,51.0,46.3,29.63,SW,221,5.0,8.0,84,0.00,,,0.00,0,Wunderground v.1.15,2013-10-08 11:28:00,
2013-10-08 04:33:00,51.0,46.3,29.63,SSW,192,2.0,6.0,84,0.00,,,0.00,0,Wunderground v.1.15,2013-10-08 11:33:00,
2013-10-08 04:38:00,51.0,46.3,29.63,South,181,1.0,6.0,84,0.00,,,0.00,0,Wunderground v.1.15,2013-10-08 11:38:00,
2013-10-08 04:43:00,51.0,46.3,29.63,SSW,211,3.0,5.0,84,0.00,,,0.00,0,Wunderground v.1.15,2013-10-08 11:43:00,
2013-10-08 04:48:00,50.9,46.2,29.63,SSW,209,3.0,7.0,84,0.00,,,0.00,0,Wunderground v.1.15,2013-10-08 11:48:00,
2013-10-08 04:53:00,50.8,46.1,29.63,South,174,2.0,10.0,84,0.00,,,0.00,0,Wunderground v.1.15,2013-10-08 11:53:00,
2013-10-08 04:58:00,50.8,46.1,29.62,SSE,166,4.0,10.0,84,0.00,,,0.00,0,Wunderground v.1.15,2013-10-08 11:58:00,
2013-10-08 05:03:00,50.8,46.1,29.62,SW,221,6.0,8.0,84,0.00,,,0.00,0,Wunderground v.1.15,2013-10-08 12:03:00,
2013-10-08 05:08:00,50.8,46.1,29.62,SW,221,4.0,9.0,84,0.00,,,0.00,0,Wunderground v.1.15,2013-10-08 12:08:00,
2013-10-08 05:13:00,50.8,46.1,29.62,SW,215,3.0,9.0,84,0.00,,,0.00,0,Wunderground v.1.15,2013-10-08 12:13:00,
2013-10-08 05:18:00,50.8,46.1,29.62,SSW,200,7.0,10.0,84,0.00,,,0.00,0,Wunderground v.1.15,2013-10-08 12:18:00,
2013-10-08 05:23:00,50.8,46.1,29.62,SSW,210,3.0,9.0,84,0.00,,,0.00,0,Wunderground v.1.15,2013-10-08 12:23:00,
2013-10-08 05:28:00,50.8,46.1,29.62,South,190,6.0,10.0,84,0.00,,,0.00,0,Wunderground v.1.15,2013-10-08 12:28:00,
2013-10-08 05:33:00,50.9,45.9,29.62,South,184,1.0,7.0,83,0.00,,,0.00,0,Wunderground v.1.15,2013-10-08 12:33:00,
2013-10-08 05:38:00,50.9,45.9,29.62,South,189,5.0,7.0,83,0.00,,,0.00,0,Wunderground v.1.15,2013-10-08 12:38:00,
2013-10-08 05:43:00,50.9,45.9,29.62,SSW,194,3.0,7.0,83,0.00,,,0.00,0,Wunderground v.1.15,2013-10-08 12:43:00,
2013-10-08 05:48:00,51.0,46.0,29.62,SSE,157,3.0,7.0,83,0.00,,,0.00,0,Wunderground v.1.15,2013-10-08 12:48:00,
2013-10-08 05:53:00,51.0,46.0,29.62,WSW,247,3.0,8.0,83,0.00,,,0.00,0,Wunderground v.1.15,2013-10-08 12:53:00,
2013-10-08 05:58:00,51.0,46.0,29.62,South,188,3.0,8.0,83,0.00,,,0.00,0,Wunderground v.1.15,2013-10-08 12:58:00,
2013-10-08 06:03:00,51.0,46.0,29.62,South,172,2.0,4.0,83,0.00,,,0.00,0,Wunderground v.1.15,2013-10-08 13:03:00,
2013-10-08 06:08:00,51.0,46.3,29.62,SSW,202,2.0,7.0,84,0.00,,,0.00,0,Wunderground v.1.15,2013-10-08 13:08:00,
2013-10-08 06:13:00,50.9,46.2,29.62,SSW,209,3.0,6.0,84,0.00,,,0.00,0,Wunderground v.1.15,2013-10-08 13:13:00,
2013-10-08 06:18:00,50.9,46.2,29.62,SSW,207,2.0,6.0,84,0.00,,,0.00,0,Wunderground v.1.15,2013-10-08 13:18:00,
2013-10-08 06:23:00,51.0,46.3,29.62,SW,215,2.0,6.0,84,0.00,,,0.00,0,Wunderground v.1.15,2013-10-08 13:23:00,
2013-10-08 06:28:00,51.0,46.3,29.62,SW,232,2.0,6.0,84,0.00,,,0.00,0,Wunderground v.1.15,2013-10-08 13:28:00,
2013-10-08 06:33:00,51.0,46.3,29.62,SSW,192,3.0,5.0,84,0.00,,,0.00,0,Wunderground v.1.15,2013-10-08 13:33:00,
2013-10-08 06:38:00,51.0,46.3,29.62,SSW,192,1.0,7.0,84,0.00,,,0.00,0,Wunderground v.1.15,2013-10-08 13:38:00,
2013-10-08 06:43:00,51.0,46.3,29.62,SSW,208,2.0,5.0,84,0.00,,,0.00,0,Wunderground v.1.15,2013-10-08 13:43:00,
2013-10-08 06:48:00,51.0,46.3,29.62,SSW,195,5.0,6.0,84,0.00,,,0.00,0,Wunderground v.1.15,2013-10-08 13:48:00,
2013-10-08 06:53:00,51.0,46.3,29.62,South,185,2.0,4.0,84,0.00,,,0.00,0,Wunderground v.1.15,2013-10-08 13:53:00,
2013-10-08 06:58:00,51.0,46.6,29.62,WSW,242,4.0,5.0,85,0.00,,,0.00,0,Wunderground v.1.15,2013-10-08 13:58:00,
2013-10-08 07:03:00,51.0,46.6,29.62,SSW,207,2.0,4.0,85,0.00,,,0.00,0,Wunderground v.1.15,2013-10-08 14:03:00,
2013-10-08 07:08:00,50.9,46.6,29.62,SSW,213,3.0,4.0,85,0.00,,,0.00,0,Wunderground v.1.15,2013-10-08 14:08:00,
2013-10-08 07:13:00,50.8,46.8,29.61,SSW,209,5.0,6.0,86,0.00,,,0.00,0,Wunderground v.1.15,2013-10-08 14:13:00,
2013-10-08 07:18:00,50.7,46.7,29.61,SSE,151,3.0,6.0,86,0.00,,,0.00,0,Wunderground v.1.15,2013-10-08 14:18:00,
2013-10-08 07:23:00,50.6,46.6,29.61,WSW,242,1.0,6.0,86,0.00,,,0.00,0,Wunderground v.1.15,2013-10-08 14:23:00,
2013-10-08 07:28:00,50.6,46.6,29.61,SSW,205,3.0,6.0,86,0.00,,,0.00,0,Wunderground v.1.15,2013-10-08 14:28:00,
2013-10-08 07:33:00,50.6,46.6,29.62,SSW,196,3.0,4.0,86,0.00,,,0.00,5,Wunderground v.1.15,2013-10-08 14:33:00,
2013-10-08 07:38:00,50.6,46.6,29.62,SSW,212,6.0,6.0,86,0.00,,,0.00,5,Wunderground v.1.15,2013-10-08 14:38:00,
2013-10-08 07:43:00,50.6,46.6,29.62,SSW,211,1.0,5.0,86,0.00,,,0.00,9,Wunderground v.1.15,2013-10-08 14:43:00,
2013-10-08 07:48:00,50.6,46.6,29.62,SSE,159,3.0,5.0,86,0.00,,,0.00,12,Wunderground v.1.15,2013-10-08 14:48:00,
2013-10-08 07:53:00,50.6,46.6,29.61,South,180,1.0,4.0,86,0.00,,,0.00,19,Wunderground v.1.15,2013-10-08 14:53:00,
2013-10-08 07:58:00,50.6,46.6,29.62,SSW,195,1.0,4.0,86,0.00,,,0.00,19,Wunderground v.1.15,2013-10-08 14:58:00,
2013-10-08 08:03:00,50.8,46.5,29.62,SSW,205,2.0,4.0,85,0.00,,,0.00,25,Wunderground v.1.15,2013-10-08 15:03:00,
2013-10-08 08:08:00,50.9,46.6,29.62,South,190,2.0,4.0,85,0.00,,,0.00,23,Wunderground v.1.15,2013-10-08 15:08:00,
2013-10-08 08:13:00,51.0,46.6,29.62,SSW,206,1.0,4.0,85,0.00,,,0.00,37,Wunderground v.1.15,2013-10-08 15:13:00,
2013-10-08 08:18:00,51.1,46.7,29.62,SW,214,1.0,4.0,85,0.00,,,0.00,44,Wunderground v.1.15,2013-10-08 15:18:00,
2013-10-08 08:23:00,51.2,46.5,29.62,SSE,159,2.0,4.0,84,0.00,,,0.00,47,Wunderground v.1.15,2013-10-08 15:23:00,
2013-10-08 08:28:00,51.2,46.5,29.62,SE,138,2.0,5.0,84,0.00,,,0.00,60,Wunderground v.1.15,2013-10-08 15:28:00,
2013-10-08 08:33:00,51.3,46.6,29.62,SSW,205,4.0,4.0,84,0.00,,,0.00,67,Wunderground v.1.15,2013-10-08 15:33:00,
2013-10-08 08:38:00,51.4,46.7,29.61,SSW,208,4.0,4.0,84,0.00,,,0.00,47,Wunderground v.1.15,2013-10-08 15:38:00,
2013-10-08 08:43:00,51.4,46.4,29.61,SSE,162,4.0,5.0,83,0.00,,,0.00,32,Wunderground v.1.15,2013-10-08 15:43:00,
2013-10-08 08:48:00,51.3,46.3,29.61,SSW,201,1.0,5.0,83,0.00,,,0.00,23,Wunderground v.1.15,2013-10-08 15:48:00,
2013-10-08 08:53:00,51.2,46.2,29.61,SW,221,1.0,6.0,83,0.00,,,0.00,19,Wunderground v.1.15,2013-10-08 15:53:00,
2013-10-08 08:58:00,51.1,46.7,29.61,SW,227,2.0,6.0,85,0.00,,,0.01,35,Wunderground v.1.15,2013-10-08 15:58:00,
2013-10-08 09:02:00,50.9,46.6,29.60,South,186,3.0,5.0,85,0.00,,,0.01,76,Wunderground v.1.15,2013-10-08 16:02:00,
2013-10-08 09:07:00,50.9,46.9,29.60,SSE,161,2.0,5.0,86,0.00,,,0.01,105,Wunderground v.1.15,2013-10-08 16:07:00,
2013-10-08 09:12:00,51.1,47.1,29.61,SSE,168,1.0,3.0,86,0.00,,,0.01,104,Wunderground v.1.15,2013-10-08 16:12:00,
2013-10-08 09:17:00,51.3,46.9,29.61,SW,221,1.0,4.0,85,0.00,,,0.01,100,Wunderground v.1.15,2013-10-08 16:17:00,
2013-10-08 09:22:00,51.5,47.5,29.60,SW,221,1.0,2.0,86,0.00,,,0.01,91,Wunderground v.1.15,2013-10-08 16:22:00,
2013-10-08 09:27:00,51.5,47.5,29.61,SW,221,0.0,2.0,86,0.00,,,0.01,107,Wunderground v.1.15,2013-10-08 16:27:00,
2013-10-08 09:32:00,51.5,47.1,29.60,SW,221,1.0,2.0,85,0.00,,,0.01,144,Wunderground v.1.15,2013-10-08 16:32:00,
2013-10-08 09:37:00,51.6,46.9,29.61,SW,221,2.0,3.0,84,0.00,,,0.01,113,Wunderground v.1.15,2013-10-08 16:37:00,
2013-10-08 09:42:00,51.7,47.3,29.61,SSE,155,1.0,4.0,85,0.00,,,0.01,128,Wunderground v.1.15,2013-10-08 16:42:00,
2013-10-08 09:47:00,51.9,47.5,29.61,SSE,155,1.0,4.0,85,0.00,,,0.01,151,Wunderground v.1.15,2013-10-08 16:47:00,
2013-10-08 09:52:00,52.0,47.3,29.61,SSE,155,0.0,2.0,84,0.00,,,0.01,149,Wunderground v.1.15,2013-10-08 16:52:00,
2013-10-08 09:57:00,52.1,47.7,29.61,SSE,155,1.0,2.0,85,0.00,,,0.01,202,Wunderground v.1.15,2013-10-08 16:57:00,
2013-10-08 10:02:00,52.2,47.5,29.61,SSE,163,1.0,3.0,84,0.00,,,0.01,188,Wunderground v.1.15,2013-10-08 17:02:00,
2013-10-08 10:07:00,52.3,47.6,29.61,SSE,163,2.0,4.0,84,0.00,,,0.01,206,Wunderground v.1.15,2013-10-08 17:07:00,
2013-10-08 10:12:00,52.6,48.2,29.61,SSE,163,2.0,2.0,85,0.00,,,0.01,200,Wunderground v.1.15,2013-10-08 17:12:00,
2013-10-08 10:17:00,52.7,47.4,29.61,SSE,163,1.0,5.0,82,0.00,,,0.01,111,Wunderground v.1.15,2013-10-08 17:17:00,
2013-10-08 10:22:00,52.6,47.6,29.61,SSE,163,1.0,2.0,83,0.00,,,0.01,49,Wunderground v.1.15,2013-10-08 17:22:00,
2013-10-08 10:27:00,52.5,47.2,29.61,ENE,72,2.0,3.0,82,0.00,,,0.01,21,Wunderground v.1.15,2013-10-08 17:27:00,
2013-10-08 10:32:00,52.2,46.5,29.61,West,262,3.0,5.0,81,0.00,,,0.01,16,Wunderground v.1.15,2013-10-08 17:32:00,
2013-10-08 10:37:00,51.6,46.3,29.62,NE,52,2.0,5.0,82,0.31,,,0.03,11,Wunderground v.1.15,2013-10-08 17:37:00,
2013-10-08 10:42:00,50.9,45.6,29.61,NNW,328,4.0,5.0,82,0.14,,,0.04,12,Wunderground v.1.15,2013-10-08 17:42:00,
2013-10-08 10:47:00,50.3,45.3,29.61,WNW,288,1.0,5.0,83,0.12,,,0.05,11,Wunderground v.1.15,2013-10-08 17:47:00,
2013-10-08 10:52:00,50.1,45.8,29.61,WNW,298,2.0,2.0,85,0.12,,,0.06,12,Wunderground v.1.15,2013-10-08 17:52:00,
2013-10-08 10:57:00,49.8,46.1,29.61,NNW,340,1.0,4.0,87,0.06,,,0.06,14,Wunderground v.1.15,2013-10-08 17:57:00,
2013-10-08 11:02:00,49.9,46.2,29.61,WNW,298,1.0,4.0,87,0.04,,,0.06,12,Wunderground v.1.15,2013-10-08 18:02:00,
2013-10-08 11:07:00,50.2,46.8,29.61,SSW,211,3.0,5.0,88,0.00,,,0.06,14,Wunderground v.1.15,2013-10-08 18:07:00,
2013-10-08 11:12:00,50.0,46.0,29.61,SW,234,1.0,4.0,86,0.00,,,0.06,16,Wunderground v.1.15,2013-10-08 18:12:00,
2013-10-08 11:17:00,50.0,46.0,29.62,SW,234,0.0,4.0,86,0.00,,,0.06,23,Wunderground v.1.15,2013-10-08 18:17:00,
2013-10-08 11:22:00,50.1,46.4,29.62,SW,234,1.0,3.0,87,0.00,,,0.06,35,Wunderground v.1.15,2013-10-08 18:22:00,
2013-10-08 11:27:00,49.9,46.2,29.62,SW,234,2.0,3.0,87,0.00,,,0.06,53,Wunderground v.1.15,2013-10-08 18:27:00,
2013-10-08 11:32:00,49.7,46.0,29.62,SW,233,1.0,2.0,87,0.00,,,0.06,69,Wunderground v.1.15,2013-10-08 18:32:00,
2013-10-08 11:37:00,49.7,46.3,29.62,SW,233,2.0,2.0,88,0.00,,,0.06,79,Wunderground v.1.15,2013-10-08 18:37:00,
2013-10-08 11:42:00,50.1,46.1,29.62,NW,306,0.0,3.0,86,0.00,,,0.06,76,Wunderground v.1.15,2013-10-08 18:42:00,
2013-10-08 11:47:00,50.5,46.8,29.62,NNE,13,2.0,3.0,87,0.00,,,0.06,74,Wunderground v.1.15,2013-10-08 18:47:00,
2013-10-08 11:52:00,50.6,46.6,29.62,NW,304,2.0,2.0,86,0.00,,,0.06,107,Wunderground v.1.15,2013-10-08 18:52:00,
2013-10-08 11:57:00,50.9,46.9,29.62,NNW,333,3.0,4.0,86,0.00,,,0.06,148,Wunderground v.1.15,2013-10-08 18:57:00,
2013-10-08 12:02:00,51.1,47.1,29.62,NNW,333,0.0,3.0,86,0.00,,,0.06,167,Wunderground v.1.15,2013-10-08 19:02:00,
2013-10-08 12:07:00,51.4,47.4,29.62,NNW,333,0.0,3.0,86,0.00,,,0.06,174,Wunderground v.1.15,2013-10-08 19:07:00,
2013-10-08 12:12:00,51.7,47.6,29.62,NNW,333,2.0,2.0,86,0.00,,,0.06,169,Wunderground v.1.15,2013-10-08 19:12:00,
2013-10-08 12:17:00,51.8,47.7,29.62,NE,51,1.0,3.0,86,0.00,,,0.06,163,Wunderground v.1.15,2013-10-08 19:17:00,
2013-10-08 12:22:00,51.8,47.4,29.62,NW,321,2.0,4.0,85,0.00,,,0.06,148,Wunderground v.1.15,2013-10-08 19:22:00,
2013-10-08 12:27:00,51.8,48.1,29.62,North,5,3.0,4.0,87,0.00,,,0.06,142,Wunderground v.1.15,2013-10-08 19:27:00,
2013-10-08 12:32:00,52.0,47.9,29.62,ENE,61,1.0,5.0,86,0.00,,,0.06,169,Wunderground v.1.15,2013-10-08 19:32:00,
2013-10-08 12:37:00,52.1,48.3,29.62,ENE,72,2.0,6.0,87,0.00,,,0.06,232,Wunderground v.1.15,2013-10-08 19:37:00,
2013-10-08 12:42:00,52.3,48.2,29.62,ENE,61,1.0,3.0,86,0.00,,,0.06,118,Wunderground v.1.15,2013-10-08 19:42:00,
2013-10-08 12:47:00,52.2,48.1,29.62,ENE,63,3.0,6.0,86,0.00,,,0.06,35,Wunderground v.1.15,2013-10-08 19:47:00,
2013-10-08 12:52:00,51.0,45.7,29.62,ESE,116,3.0,7.0,82,0.47,,,0.08,54,Wunderground v.1.15,2013-10-08 19:52:00,
2013-10-08 12:57:00,49.9,44.9,29.62,North,355,3.0,7.0,83,0.09,,,0.08,35,Wunderground v.1.15,2013-10-08 19:57:00,
2013-10-08 13:02:00,49.2,44.9,29.62,NE,42,2.0,6.0,85,0.08,,,0.09,72,Wunderground v.1.15,2013-10-08 20:02:00,
2013-10-08 13:07:00,49.0,45.0,29.62,NE,34,3.0,6.0,86,0.07,,,0.09,100,Wunderground v.1.15,2013-10-08 20:07:00,
2013-10-08 13:12:00,49.2,45.5,29.62,East,81,2.0,4.0,87,0.04,,,0.09,90,Wunderground v.1.15,2013-10-08 20:12:00,
2013-10-08 13:17:00,49.4,45.7,29.62,East,81,2.0,5.0,87,0.00,,,0.09,102,Wunderground v.1.15,2013-10-08 20:17:00,
2013-10-08 13:22:00,49.6,45.9,29.62,ENE,72,2.0,3.0,87,0.00,,,0.09,236,Wunderground v.1.15,2013-10-08 20:22:00,
2013-10-08 13:27:00,50.2,46.8,29.62,ENE,63,1.0,3.0,88,0.00,,,0.09,258,Wunderground v.1.15,2013-10-08 20:27:00,
2013-10-08 13:32:00,50.6,46.9,29.61,East,90,2.0,3.0,87,0.00,,,0.09,155,Wunderground v.1.15,2013-10-08 20:32:00,
2013-10-08 13:37:00,50.6,46.9,29.62,ENE,63,3.0,3.0,87,0.00,,,0.09,153,Wunderground v.1.15,2013-10-08 20:37:00,
2013-10-08 13:42:00,50.5,46.8,29.62,ENE,63,2.0,2.0,87,0.00,,,0.09,232,Wunderground v.1.15,2013-10-08 20:42:00,
2013-10-08 13:47:00,50.8,46.8,29.61,East,93,0.0,5.0,86,0.00,,,0.09,292,Wunderground v.1.15,2013-10-08 20:47:00,
2013-10-08 13:52:00,51.3,46.9,29.61,SE,138,1.0,4.0,85,0.00,,,0.09,490,Wunderground v.1.15,2013-10-08 20:52:00,
2013-10-08 13:57:00,52.1,48.0,29.61,SE,144,5.0,6.0,86,0.00,,,0.09,643,Wunderground v.1.15,2013-10-08 20:57:00,
2013-10-08 14:02:00,51.5,47.8,29.61,SSE,167,3.0,5.0,87,0.00,,,0.09,610,Wunderground v.1.15,2013-10-08 21:02:00,
2013-10-08 14:07:00,51.5,47.5,29.61,SSE,157,3.0,5.0,86,0.00,,,0.09,501,Wunderground v.1.15,2013-10-08 21:07:00,
2013-10-08 14:12:00,51.5,46.8,29.61,SSE,161,3.0,4.0,84,0.00,,,0.09,262,Wunderground v.1.15,2013-10-08 21:12:00,
2013-10-08 14:17:00,51.2,46.5,29.60,SSE,161,2.0,4.0,84,0.00,,,0.09,163,Wunderground v.1.15,2013-10-08 21:17:00,
2013-10-08 14:22:00,51.6,46.9,29.60,SSE,161,2.0,2.0,84,0.00,,,0.09,543,Wunderground v.1.15,2013-10-08 21:22:00,
2013-10-08 14:27:00,52.2,46.9,29.60,SSE,161,1.0,3.0,82,0.00,,,0.09,534,Wunderground v.1.15,2013-10-08 21:27:00,
2013-10-08 14:32:00,52.8,47.5,29.60,SSE,161,2.0,3.0,82,0.00,,,0.09,643,Wunderground v.1.15,2013-10-08 21:32:00,
2013-10-08 14:37:00,52.9,47.2,29.60,South,170,3.0,4.0,81,0.00,,,0.09,642,Wunderground v.1.15,2013-10-08 21:37:00,
2013-10-08 14:42:00,53.4,47.4,29.60,SSE,162,3.0,5.0,80,0.00,,,0.09,661,Wunderground v.1.15,2013-10-08 21:42:00,
2013-10-08 14:47:00,53.7,47.3,29.60,SSW,192,1.0,5.0,79,0.00,,,0.09,445,Wunderground v.1.15,2013-10-08 21:47:00,
2013-10-08 14:52:00,53.6,46.9,29.60,SSE,163,1.0,4.0,78,0.00,,,0.09,281,Wunderground v.1.15,2013-10-08 21:52:00,
2013-10-08 14:57:00,53.2,46.9,29.60,SSE,156,2.0,4.0,79,0.00,,,0.09,65,Wunderground v.1.15,2013-10-08 21:57:00,
2013-10-08 15:02:00,52.8,46.5,29.60,NE,34,3.0,3.0,79,0.00,,,0.09,72,Wunderground v.1.15,2013-10-08 22:02:00,
2013-10-08 15:07:00,52.3,45.6,29.60,ENE,62,1.0,4.0,78,0.00,,,0.09,114,Wunderground v.1.15,2013-10-08 22:07:00,
2013-10-08 15:12:00,52.1,45.1,29.61,ENE,58,1.0,2.0,77,0.00,,,0.09,156,Wunderground v.1.15,2013-10-08 22:12:00,
2013-10-08 15:17:00,52.2,45.5,29.61,ENE,58,0.0,2.0,78,0.00,,,0.09,216,Wunderground v.1.15,2013-10-08 22:17:00,
2013-10-08 15:22:00,52.3,46.0,29.61,ENE,58,1.0,2.0,79,0.00,,,0.09,213,Wunderground v.1.15,2013-10-08 22:22:00,
2013-10-08 15:27:00,52.6,45.9,29.61,ESE,115,0.0,3.0,78,0.00,,,0.09,211,Wunderground v.1.15,2013-10-08 22:27:00,
2013-10-08 15:32:00,53.1,46.4,29.62,NNW,333,1.0,4.0,78,0.00,,,0.09,192,Wunderground v.1.15,2013-10-08 22:32:00,
2013-10-08 15:37:00,54.0,45.2,29.61,NW,321,1.0,4.0,72,0.00,,,0.09,156,Wunderground v.1.15,2013-10-08 22:37:00,
2013-10-08 15:42:00,54.5,45.7,29.62,NNW,347,2.0,3.0,72,0.00,,,0.09,162,Wunderground v.1.15,2013-10-08 22:42:00,
2013-10-08 15:47:00,54.6,43.9,29.62,NNW,333,4.0,7.0,67,0.00,,,0.09,178,Wunderground v.1.15,2013-10-08 22:47:00,
2013-10-08 15:52:00,54.6,44.6,29.62,North,9,3.0,5.0,69,0.00,,,0.09,176,Wunderground v.1.15,2013-10-08 22:52:00,
2013-10-08 15:57:00,54.5,43.4,29.62,NW,319,3.0,9.0,66,0.00,,,0.09,172,Wunderground v.1.15,2013-10-08 22:57:00,
2013-10-08 16:02:00,54.6,43.9,29.62,NW,320,1.0,3.0,67,0.00,,,0.09,169,Wunderground v.1.15,2013-10-08 23:02:00,
2013-10-08 16:07:00,54.8,43.7,29.63,NW,312,3.0,4.0,66,0.00,,,0.09,192,Wunderground v.1.15,2013-10-08 23:07:00,
2013-10-08 16:12:00,54.8,43.7,29.63,NW,306,6.0,6.0,66,0.00,,,0.09,195,Wunderground v.1.15,2013-10-08 23:12:00,
2013-10-08 16:17:00,54.7,43.6,29.63,NW,319,1.0,7.0,66,0.00,,,0.09,302,Wunderground v.1.15,2013-10-08 23:17:00,
2013-10-08 16:22:00,55.0,44.2,29.63,NNW,344,2.0,4.0,67,0.00,,,0.09,413,Wunderground v.1.15,2013-10-08 23:22:00,
2013-10-08 16:27:00,55.5,44.3,29.63,NNE,15,5.0,8.0,66,0.00,,,0.09,355,Wunderground v.1.15,2013-10-08 23:27:00,
2013-10-08 16:32:00,55.2,44.4,29.63,NW,309,3.0,10.0,67,0.00,,,0.09,341,Wunderground v.1.15,2013-10-08 23:32:00,
2013-10-08 16:37:00,55.1,44.3,29.63,ESE,115,2.0,11.0,67,0.00,,,0.09,315,Wunderground v.1.15,2013-10-08 23:37:00,
2013-10-08 16:42:00,55.0,44.2,29.63,NNE,21,3.0,9.0,67,0.00,,,0.09,287,Wunderground v.1.15,2013-10-08 23:42:00,
2013-10-08 16:47:00,54.7,43.6,29.63,WNW,299,5.0,10.0,66,0.00,,,0.09,267,Wunderground v.1.15,2013-10-08 23:47:00,
2013-10-08 16:52:00,54.4,43.7,29.63,North,5,2.0,8.0,67,0.00,,,0.09,251,Wunderground v.1.15,2013-10-08 23:52:00,
2013-10-08 16:57:00,54.6,44.2,29.63,NW,314,4.0,10.0,68,0.00,,,0.09,241,Wunderground v.1.15,2013-10-08 23:57:00,
2013-10-08 17:02:00,54.4,42.9,29.62,NNW,327,1.0,7.0,65,0.00,,,0.09,218,Wunderground v.1.15,2013-10-09 00:02:00,
2013-10-08 17:07:00,54.2,42.7,29.62,NW,309,7.0,13.0,65,0.00,,,0.09,179,Wunderground v.1.15,2013-10-09 00:07:00,
2013-10-08 17:12:00,53.9,42.8,29.63,NW,325,7.0,11.0,66,0.00,,,0.09,172,Wunderground v.1.15,2013-10-09 00:12:00,
2013-10-08 17:17:00,53.8,42.7,29.63,NW,309,6.0,12.0,66,0.00,,,0.09,176,Wunderground v.1.15,2013-10-09 00:17:00,
2013-10-08 17:22:00,53.7,42.6,29.63,NW,312,1.0,7.0,66,0.00,,,0.09,149,Wunderground v.1.15,2013-10-09 00:22:00,
2013-10-08 17:27:00,53.6,42.5,29.63,ENE,65,1.0,13.0,66,0.00,,,0.09,130,Wunderground v.1.15,2013-10-09 00:27:00,
2013-10-08 17:32:00,53.7,42.6,29.63,NNW,343,5.0,8.0,66,0.00,,,0.09,114,Wunderground v.1.15,2013-10-09 00:32:00,
2013-10-08 17:37:00,53.4,42.7,29.63,NNW,333,5.0,9.0,67,0.00,,,0.09,98,Wunderground v.1.15,2013-10-09 00:37:00,
2013-10-08 17:41:00,53.2,42.9,29.63,SW,221,3.0,4.0,68,0.00,,,0.09,83,Wunderground v.1.15,2013-10-09 00:41:00,
2013-10-08 17:46:00,53.0,43.1,29.63,NNW,332,4.0,10.0,69,0.00,,,0.09,69,Wunderground v.1.15,2013-10-09 00:46:00,
2013-10-08 17:51:00,52.8,42.9,29.64,NNW,331,1.0,3.0,69,0.00,,,0.09,58,Wunderground v.1.15,2013-10-09 00:51:00,
2013-10-08 17:56:00,52.6,43.1,29.64,North,5,1.0,7.0,70,0.00,,,0.09,47,Wunderground v.1.15,2013-10-09 00:56:00,
2013-10-08 18:01:00,52.3,43.2,29.64,NNW,348,1.0,5.0,71,0.00,,,0.09,19,Wunderground v.1.15,2013-10-09 01:01:00,
2013-10-08 18:06:00,52.0,43.3,29.64,WNW,303,1.0,9.0,72,0.00,,,0.09,21,Wunderground v.1.15,2013-10-09 01:06:00,
2013-10-08 18:11:00,51.9,43.2,29.64,NNE,24,4.0,6.0,72,0.00,,,0.09,18,Wunderground v.1.15,2013-10-09 01:11:00,
2013-10-08 18:16:00,51.5,43.1,29.64,NW,316,4.0,7.0,73,0.00,,,0.09,12,Wunderground v.1.15,2013-10-09 01:16:00,
2013-10-08 18:21:00,51.3,43.3,29.65,NW,317,4.0,5.0,74,0.00,,,0.09,11,Wunderground v.1.15,2013-10-09 01:21:00,
2013-10-08 18:26:00,51.2,43.5,29.65,NNW,330,3.0,5.0,75,0.00,,,0.09,7,Wunderground v.1.15,2013-10-09 01:26:00,
2013-10-08 18:31:00,51.1,43.8,29.65,NNW,328,2.0,4.0,76,0.00,,,0.09,5,Wunderground v.1.15,2013-10-09 01:31:00,
2013-10-08 18:36:00,50.9,43.6,29.66,NNW,347,1.0,4.0,76,0.00,,,0.09,0,Wunderground v.1.15,2013-10-09 01:36:00,
2013-10-08 18:41:00,50.8,43.5,29.66,NNW,329,1.0,2.0,76,0.00,,,0.09,0,Wunderground v.1.15,2013-10-09 01:41:00,
2013-10-08 18:46:00,50.8,43.5,29.66,NW,321,1.0,6.0,76,0.00,,,0.09,0,Wunderground v.1.15,2013-10-09 01:46:00,
2013-10-08 18:51:00,50.6,43.3,29.66,NW,326,2.0,4.0,76,0.00,,,0.09,0,Wunderground v.1.15,2013-10-09 01:51:00,
2013-10-08 18:56:00,50.5,43.6,29.66,NNW,334,1.0,4.0,77,0.00,,,0.09,0,Wunderground v.1.15,2013-10-09 01:56:00,
2013-10-08 19:01:00,50.4,43.5,29.67,NNW,334,1.0,1.0,77,0.00,,,0.09,0,Wunderground v.1.15,2013-10-09 02:01:00,
2013-10-08 19:06:00,50.1,43.5,29.66,NNW,334,0.0,2.0,78,0.00,,,0.09,0,Wunderground v.1.15,2013-10-09 02:06:00,
2013-10-08 19:11:00,50.1,43.5,29.67,ENE,63,1.0,1.0,78,0.00,,,0.09,0,Wunderground v.1.15,2013-10-09 02:11:00,
2013-10-08 19:16:00,50.1,43.5,29.67,WNW,296,0.0,3.0,78,0.00,,,0.09,0,Wunderground v.1.15,2013-10-09 02:16:00,
2013-10-08 19:21:00,50.1,43.5,29.67,WNW,296,1.0,2.0,78,0.00,,,0.09,0,Wunderground v.1.15,2013-10-09 02:21:00,
2013-10-08 19:26:00,49.9,43.3,29.67,WNW,296,0.0,2.0,78,0.00,,,0.09,0,Wunderground v.1.15,2013-10-09 02:26:00,
2013-10-08 19:31:00,49.9,43.6,29.67,WNW,296,0.0,1.0,79,0.00,,,0.09,0,Wunderground v.1.15,2013-10-09 02:31:00,
2013-10-08 19:36:00,49.6,43.4,29.67,WNW,296,1.0,1.0,79,0.00,,,0.09,0,Wunderground v.1.15,2013-10-09 02:36:00,
2013-10-08 19:41:00,49.5,43.6,29.67,WNW,296,0.0,1.0,80,0.00,,,0.09,0,Wunderground v.1.15,2013-10-09 02:41:00,
2013-10-08 19:46:00,49.3,43.4,29.67,WNW,296,0.0,1.0,80,0.00,,,0.09,0,Wunderground v.1.15,2013-10-09 02:46:00,
2013-10-08 19:51:00,49.2,43.3,29.67,WNW,296,0.0,1.0,80,0.00,,,0.09,0,Wunderground v.1.15,2013-10-09 02:51:00,
2013-10-08 19:56:00,49.2,43.6,29.67,WNW,296,0.0,1.0,81,0.00,,,0.09,0,Wunderground v.1.15,2013-10-09 02:56:00,
2013-10-08 20:01:00,49.2,43.6,29.68,WNW,296,0.0,1.0,81,0.00,,,0.09,0,Wunderground v.1.15,2013-10-09 03:01:00,
2013-10-08 20:06:00,49.3,43.7,29.68,WNW,296,0.0,1.0,81,0.00,,,0.09,0,Wunderground v.1.15,2013-10-09 03:06:00,
2013-10-08 20:11:00,49.6,44.0,29.67,WNW,296,0.0,1.0,81,0.00,,,0.09,0,Wunderground v.1.15,2013-10-09 03:11:00,
2013-10-08 20:16:00,49.7,44.1,29.67,WNW,296,0.0,1.0,81,0.00,,,0.09,0,Wunderground v.1.15,2013-10-09 03:16:00,
2013-10-08 20:21:00,49.9,44.3,29.68,WNW,296,0.0,1.0,81,0.00,,,0.09,0,Wunderground v.1.15,2013-10-09 03:21:00,
2013-10-08 20:26:00,49.9,44.3,29.68,WNW,296,2.0,2.0,81,0.00,,,0.09,0,Wunderground v.1.15,2013-10-09 03:26:00,
2013-10-08 20:31:00,49.9,44.3,29.68,WNW,296,0.0,0.0,81,0.00,,,0.09,0,Wunderground v.1.15,2013-10-09 03:31:00,
2013-10-08 20:36:00,49.8,44.2,29.68,WNW,296,1.0,1.0,81,0.00,,,0.09,0,Wunderground v.1.15,2013-10-09 03:36:00,
2013-10-08 20:41:00,49.7,44.1,29.68,WNW,296,1.0,1.0,81,0.00,,,0.09,0,Wunderground v.1.15,2013-10-09 03:41:00,
2013-10-08 20:46:00,49.6,44.0,29.68,WNW,296,0.0,2.0,81,0.00,,,0.09,0,Wunderground v.1.15,2013-10-09 03:46:00,
2013-10-08 20:51:00,49.1,43.8,29.68,WNW,296,0.0,0.0,82,0.00,,,0.09,0,Wunderground v.1.15,2013-10-09 03:51:00,
2013-10-08 20:56:00,48.7,43.8,29.68,WNW,296,0.0,0.0,83,0.00,,,0.09,0,Wunderground v.1.15,2013-10-09 03:56:00,
2013-10-08 21:01:00,48.5,43.9,29.69,WNW,296,0.0,0.0,84,0.00,,,0.09,0,Wunderground v.1.15,2013-10-09 04:01:00,
2013-10-08 21:06:00,48.2,43.6,29.69,WNW,296,0.0,0.0,84,0.00,,,0.09,0,Wunderground v.1.15,2013-10-09 04:06:00,
2013-10-08 21:11:00,48.1,43.8,29.69,WNW,296,0.0,0.0,85,0.00,,,0.09,0,Wunderground v.1.15,2013-10-09 04:11:00,
2013-10-08 21:16:00,48.0,43.7,29.69,WNW,296,0.0,0.0,85,0.00,,,0.09,0,Wunderground v.1.15,2013-10-09 04:16:00,
2013-10-08 21:21:00,47.9,43.9,29.69,WNW,296,0.0,1.0,86,0.00,,,0.09,0,Wunderground v.1.15,2013-10-09 04:21:00,
2013-10-08 21:26:00,48.0,43.7,29.69,WNW,296,0.0,1.0,85,0.00,,,0.09,0,Wunderground v.1.15,2013-10-09 04:26:00,
2013-10-08 21:31:00,48.0,43.7,29.69,WNW,296,0.0,0.0,85,0.00,,,0.09,0,Wunderground v.1.15,2013-10-09 04:31:00,
2013-10-08 21:36:00,48.1,43.8,29.69,WNW,296,0.0,1.0,85,0.00,,,0.09,0,Wunderground v.1.15,2013-10-09 04:36:00,
2013-10-08 21:41:00,48.3,43.7,29.69,WNW,296,0.0,1.0,84,0.00,,,0.09,0,Wunderground v.1.15,2013-10-09 04:41:00,
2013-10-08 21:46:00,48.3,44.0,29.70,WNW,296,0.0,1.0,85,0.00,,,0.09,0,Wunderground v.1.15,2013-10-09 04:46:00,
2013-10-08 21:51:00,48.3,43.7,29.70,WNW,296,1.0,1.0,84,0.00,,,0.09,0,Wunderground v.1.15,2013-10-09 04:51:00,
2013-10-08 21:56:00,48.6,44.0,29.70,WNW,296,1.0,3.0,84,0.00,,,0.09,0,Wunderground v.1.15,2013-10-09 04:56:00,
2013-10-08 22:01:00,48.8,43.9,29.70,WNW,296,0.0,1.0,83,0.00,,,0.09,0,Wunderground v.1.15,2013-10-09 05:01:00,
2013-10-08 22:06:00,48.9,44.0,29.70,NW,304,0.0,3.0,83,0.00,,,0.09,0,Wunderground v.1.15,2013-10-09 05:06:00,
2013-10-08 22:11:00,49.0,44.1,29.70,NW,304,0.0,1.0,83,0.00,,,0.09,0,Wunderground v.1.15,2013-10-09 05:11:00,
2013-10-08 22:16:00,48.7,43.8,29.70,NW,304,0.0,2.0,83,0.00,,,0.09,0,Wunderground v.1.15,2013-10-09 05:16:00,
2013-10-08 22:21:00,48.7,43.8,29.70,NW,304,0.0,1.0,83,0.00,,,0.09,0,Wunderground v.1.15,2013-10-09 05:21:00,
2013-10-08 22:26:00,48.6,43.7,29.71,NW,305,0.0,2.0,83,0.00,,,0.09,0,Wunderground v.1.15,2013-10-09 05:26:00,
2013-10-08 22:31:00,48.7,43.8,29.71,NW,305,1.0,1.0,83,0.00,,,0.09,0,Wunderground v.1.15,2013-10-09 05:31:00,
2013-10-08 22:36:00,48.6,43.7,29.71,NW,305,1.0,1.0,83,0.00,,,0.09,0,Wunderground v.1.15,2013-10-09 05:36:00,
2013-10-08 22:41:00,48.5,43.6,29.71,NW,305,0.0,1.0,83,0.00,,,0.09,0,Wunderground v.1.15,2013-10-09 05:41:00,
2013-10-08 22:46:00,48.4,43.5,29.71,NW,308,1.0,2.0,83,0.00,,,0.09,0,Wunderground v.1.15,2013-10-09 05:46:00,
2013-10-08 22:51:00,48.4,43.5,29.71,NW,308,1.0,2.0,83,0.00,,,0.09,0,Wunderground v.1.15,2013-10-09 05:51:00,
2013-10-08 22:56:00,48.3,43.4,29.71,NW,308,1.0,2.0,83,0.00,,,0.09,0,Wunderground v.1.15,2013-10-09 05:56:00,
2013-10-08 23:01:00,48.3,43.4,29.71,NW,308,1.0,1.0,83,0.00,,,0.09,0,Wunderground v.1.15,2013-10-09 06:01:00,
2013-10-08 23:06:00,48.2,43.3,29.71,NW,308,2.0,2.0,83,0.00,,,0.09,0,Wunderground v.1.15,2013-10-09 06:06:00,
2013-10-08 23:11:00,48.2,43.3,29.71,NW,309,2.0,2.0,83,0.00,,,0.09,0,Wunderground v.1.15,2013-10-09 06:11:00,
2013-10-08 23:16:00,48.2,43.3,29.71,NW,309,1.0,2.0,83,0.00,,,0.09,0,Wunderground v.1.15,2013-10-09 06:16:00,
2013-10-08 23:21:00,48.1,43.2,29.71,NW,309,1.0,1.0,83,0.00,,,0.09,0,Wunderground v.1.15,2013-10-09 06:21:00,
2013-10-08 23:26:00,48.2,43.6,29.71,NW,309,1.0,2.0,84,0.00,,,0.09,0,Wunderground v.1.15,2013-10-09 06:26:00,
2013-10-08 23:31:00,48.2,43.6,29.71,ENE,64,1.0,2.0,84,0.00,,,0.09,0,Wunderground v.1.15,2013-10-09 06:31:00,
2013-10-08 23:36:00,48.2,43.6,29.71,NE,55,1.0,2.0,84,0.00,,,0.09,0,Wunderground v.1.15,2013-10-09 06:36:00,
2013-10-08 23:41:00,48.1,43.5,29.71,NE,55,1.0,2.0,84,0.00,,,0.09,0,Wunderground v.1.15,2013-10-09 06:41:00,
2013-10-08 23:46:00,48.0,43.4,29.71,NE,39,0.0,3.0,84,0.00,,,0.09,0,Wunderground v.1.15,2013-10-09 06:46:00,
2013-10-08 23:51:00,48.1,43.5,29.71,NE,37,0.0,1.0,84,0.00,,,0.09,0,Wunderground v.1.15,2013-10-09 06:51:00,
2013-10-08 23:56:00,48.1,43.8,29.71,NE,50,1.0,2.0,85,0.00,,,0.09,0,Wunderground v.1.15,2013-10-09 06:56:00,